Showing default

NUSAT-44 MARIA MITCHELL, 59122

Orbit data source: Space-Track

NUSAT-44 MARIA MITCHELL, 59122 is a payload satellite owned by URUGUS S.A. (AR) in SSO that was launched on Mon, 04 Mar 2024 UTC via an FALCON 9 launch vehicle from the Air Force Western Test Range (AFWTR). Payload-class satellites include a variety of spacecraft equipped with specific instruments for various scientific and technological missions. These include communications satellites like Starlink; space stations such as the ISS; scientific satellites like the Hubble; Earth observation satellites from companies like Planet Labs, Umbra, and HawkEye 360; GPS; miniature CubeSats for education and research; and military/defense satellites.

Loading next visibility...
Identifier
59122, 2024-043AA
Orbit
SSO
Last TLE update
6 hours ago
Origin
Manufacturer
URUGUS S.A.
Mission
Operational Commercial Imaging
Bus & Motor
NEWSAT V, Unknown motor
Mass
41.5 kg wet, 38.5 kg dry
Launch date (UTC)
2024-03-04 (1 year ago)
Launch vehicle
FALCON 9
Launch site
Air Force Western Test Range (AFWTR)
Object type
Payload
Rocket body
Debris
Shape & HBR
Box, 0.813 m
Radar Cross Section
0.542 m², Medium (>0.1 m² and < 1m²)

Expand to show TLE details & history

TLE from 6 hours ago
0 NUSAT-44 MARIA MITCHELL
1 59122U 24043AA  25182.51307437  .00008179  00000-0  30523-3 0  9991
2 59122  97.5090 313.4535 0010242  40.5409 319.6591 15.27617530 73669
Epoch: 2025-07-01T12:18Z
TLE epoch observation values (Epoch: 2025-07-01T12:18:49.625Z)
Latitude
-0.00003°
Longitude
-151.06072°
Altitude
480.68 km
Speed
7.628 km/s
True Right ascension
20h 53m 48s
True Declination
0° 00' 00"
Sunlit
Object was in full shadow at epoch
Visualization orbit readout
Latitude
-59.91761°
Longitude
16.10197°
Altitude
512.644 km
Speed
7.602 km/s
Apparent Right ascension
14h 49m 20s
Apparent Declination
-74° 11' 49"
Sunlit
Object is in daylight
Visualization observer readout
Local Sidereal Time
05:44:29
Azimuth
162.881° S
Elevation
-50.193°
Doppler factor
1
Orbital elements
Apogee altitude
486.921 km
Perigee altitude
472.873 km
Semi-major axis
6,858.034 km
Eccentricity
0.00102
Inclination
97.509°
RAAN
313.4535°
Arg. of periapsis
40.5409°
True anomaly
Unknown
Mean anomaly
319.6591°
Eccentric anomaly
Unknown
Mean motion
3.82159 °/min
Orbital period
94.2 mins
BSTAR
0.00030523
Loading maneuver chart data...
Loading SW <> Apogee altitude chart data...
Loading historical data...
Loading historical data...
Loading historical data...
Loading historical data...
Loading historical data...
Loading historical data...
Loading historical data...

NUSAT-44 MARIA MITCHELL Visibility forecast

Observer location: undefined°, undefined°

Span
Click to sort rows by Start time (UTC) header in descending order
Start Az.
Max El. time (UTC)
Max El. Az.
Max El.
End time (UTC)
End Az.
5 mins2025-07-02 08:53:47.390Z177.168° S2025-07-02 08:55:47.390Z304.733° NW42.973°2025-07-02 08:58:47.390Z344.128° N
|